Waarnemingen

Advertentie
Mijn weer
Greifswalder Oie, Duitsland (10097): temperatuur & dauwpunt: 14.08.2017 00:00:00 - 20.08.2017 00:00:00 (CEST)Greifswalder Oie, Duitsland (10097): temperatuur 5cm & temperatuur -5cm: 14.08.2017 00:00:00 - 20.08.2017 00:00:00 (CEST)Greifswalder Oie, Duitsland (10097): temperatuur -20cm & temperatuur -100cm: 14.08.2017 00:00:00 - 20.08.2017 00:00:00 (CEST)Greifswalder Oie, Duitsland (10097): water temperatuur: 14.08.2017 00:00:00 - 20.08.2017 00:00:00 (CEST)Greifswalder Oie, Duitsland (10097): windsnelheid & windstoten: 14.08.2017 00:00:00 - 20.08.2017 00:00:00 (CEST)Greifswalder Oie, Duitsland (10097): windrichting: 14.08.2017 00:00:00 - 20.08.2017 00:00:00 (CEST)Greifswalder Oie, Duitsland (10097): luchtdruk: 14.08.2017 00:00:00 - 20.08.2017 00:00:00 (CEST)Greifswalder Oie, Duitsland (10097): zicht: 14.08.2017 00:00:00 - 20.08.2017 00:00:00 (CEST)Greifswalder Oie, Duitsland (10097): Zonneschijnduur: 14.08.2017 00:00:00 - 20.08.2017 00:00:00 (CEST)Greifswalder Oie, Duitsland (10097): neerslag: 14.08.2017 00:00:00 - 20.08.2017 00:00:00 (CEST)
Datum & Tijd tt [°C] td [°C] tt 5cm [°C] tt -5cm [°C] tt -20cm [°C] tt -100cm [°C] tw [°C] ff [km/u] ff [kn] fx [km/u] fx [kn] dd ppp [hPa] vv [km] sd [min] rr [mm]
20.08.2017 00:00:00 16,5 12,5 15,4 15,7 18,4 17,8 19,2 31 17 37 20 ZW 1016,0 39 0 0,0
19.08.2017 23:00:00 17,3 12,7 16,1 16,1 18,7 17,9 19,3 30 16 36 20 ZW 1015,7 44 0 0,0
19.08.2017 22:00:00 17,0 13,5 15,7 16,4 19,0 17,9 19,4 20 11 31 17 ZW 1015,7 42 0 0,0
19.08.2017 21:00:00 17,4 12,8 16,0 17,0 19,3 17,9 19,4 26 14 52 28 WZW 1015,4 45 14 0,0
19.08.2017 20:00:00 18,1 13,8 17,5 17,8 19,5 17,9 19,5 24 13 54 29 WZW 1014,8 40 17 0,0
19.08.2017 19:00:00 19,2 11,8 18,7 18,5 19,7 17,9 19,6 41 22 50 27 ZW 1014,3 40 7 0,0
19.08.2017 18:00:00 19,4 11,8 19,2 19,4 19,7 17,9 20,0 40 22 46 25 ZW 1014,4 29 10 0,0
19.08.2017 17:00:00 19,6 11,7 20,2 20,6 19,6 17,9 20,5 33 18 45 25 ZZW 1014,0 23 30 0,0
19.08.2017 16:00:00 19,3 11,5 21,2 21,5 19,4 17,9 20,4 34 18 42 23 ZW 1014,0 20 49 0,0
19.08.2017 15:00:00 19,4 12,0 21,9 20,7 19,3 17,9 20,3 33 18 44 24 ZW 1014,0 38 29 0,0
19.08.2017 14:00:00 18,4 12,0 19,5 20,2 19,1 17,9 20,2 28 15 42 23 WZW 1014,0 45 21 0,0
19.08.2017 13:00:00 18,0 11,5 20,4 21,1 18,7 17,9 20,1 30 16 45 25 WZW 1013,7 20 55 0,0
19.08.2017 12:00:00 17,1 12,3 18,5 19,5 18,5 17,9 19,7 35 19 48 26 WZW 1013,2 17 57 0,0
19.08.2017 11:00:00 16,9 13,2 18,2 18,1 18,5 17,9 19,5 40 21 53 29 WZW 1012,9 17 31 0,0
19.08.2017 10:00:00 16,3 12,9 16,3 17,2 18,6 17,9 19,4 42 23 50 27 WZW 1012,3 19 0 0,0
19.08.2017 09:00:00 16,5 13,7 16,7 17,2 18,6 17,9 19,4 40 22 49 26 WZW 1011,3 20 30 0,0
19.08.2017 08:00:00 16,8 15,0 16,4 17,0 18,8 17,9 19,4 42 23 53 29 WZW 1010,5 14 13 0,0
19.08.2017 07:00:00 16,7 14,8 16,2 16,9 18,9 17,9 19,5 43 23 55 30 WZW 1009,9 10 0 0,0
19.08.2017 06:00:00 17,0 15,1 16,2 17,1 19,1 17,9 19,5 39 21 55 30 WZW 1009,2 13 0 0,0
19.08.2017 05:00:00 17,2 15,8 16,8 17,3 19,3 17,9 19,4 45 24 56 30 WZW 1008,9 12 0 0,0
19.08.2017 04:00:00 17,5 15,9 16,7 17,4 19,5 17,9 19,8 32 18 41 22 WZW 1008,2 31 0 0,0
19.08.2017 03:00:00 17,6 15,7 16,9 17,8 19,7 17,9 20,0 32 17 44 24 W 1008,3 37 0 0,0
19.08.2017 02:00:00 17,6 16,4 17,0 18,2 19,9 17,9 20,1 35 19 45 24 W 1007,9 11 0 3,4
19.08.2017 01:00:00 18,0 17,1 17,6 18,7 20,1 17,9 20,1 35 19 41 22 W 1008,2 1,5 0 0,6
19.08.2017 00:00:00 18,4 17,7 17,9 18,8 20,2 17,9 20,2 14 8 21 11 WZW 1008,1 3,8 0 0,1
18.08.2017 23:00:00 17,6 17,0 17,3 18,8 20,5 17,9 20,2 6 3 11 6 WNW 1008,1 30 0 0,0
18.08.2017 22:00:00 17,3 16,7 16,9 19,0 20,7 17,9 20,3 5 3 12 7 W 1009,1 33 0 0,0
18.08.2017 21:00:00 17,0 16,8 16,5 19,5 21,0 17,9 20,3 9 5 16 9 WNW 1009,2 35 0 0,0
18.08.2017 20:00:00 17,6 17,5 17,6 20,0 21,3 17,9 20,4 5 3 34 19 ZZW 1009,4 21 0 16,6
18.08.2017 19:00:00 18,0 17,2 17,7 21,0 21,5 17,9 20,4 26 14 39 21 NW 1009,5 0,9 0 1,4
18.08.2017 18:00:00 18,8 16,7 19,2 21,5 21,6 17,9 20,6 6 3 31 17 ZO 1010,2 29 0 3,7
18.08.2017 17:00:00 20,1 19,0 19,6 22,4 21,7 17,9 21,2 16 9 24 13 ZW 1011,8 5 0 1,2
18.08.2017 16:00:00 20,8 18,5 20,1 23,2 21,6 17,9 21,2 15 8 35 19 ZZW 1011,9 9 0 0,4
18.08.2017 15:00:00 21,8 18,0 23,1 24,9 21,3 17,8 21,2 17 9 24 13 ZZW 1012,3 20 0 0,0
18.08.2017 14:00:00 21,2 18,4 23,7 25,1 20,9 17,8 21,2 8 4 17 9 ZZO 1012,6 9 20 0,0
18.08.2017 13:00:00 21,2 17,9 23,4 23,4 20,6 17,8 20,9 12 7 23 12 Z 1012,9 16 1 0,0
18.08.2017 12:00:00 20,7 17,7 21,8 22,9 20,3 17,8 20,6 18 10 25 14 ZW 1013,6 11 6 0,0
18.08.2017 11:00:00 20,2 17,8 23,3 22,4 20,0 17,8 20,4 13 7 31 17 Z 1013,8 7 24 0,0
18.08.2017 10:00:00 19,2 17,5 20,8 21,2 19,8 17,8 20,0 21 12 29 16 ZZW 1013,8 6 37 0,0
18.08.2017 09:00:00 18,7 17,1 20,3 19,8 19,7 17,8 19,7 21 11 28 15 ZZW 1013,5 6 47 0,0
18.08.2017 08:00:00 18,1 17,0 18,2 18,8 19,8 17,8 19,5 25 13 33 18 ZW 1013,7 5 0 0,0
18.08.2017 07:00:00 18,1 17,2 18,0 18,6 19,9 17,8 19,5 24 13 29 15 ZW 1013,7 4,7 0 0,0
18.08.2017 06:00:00 18,4 17,4 18,0 18,5 20,1 17,8 19,5 20 11 30 16 WZW 1013,3 5 0 0,0
18.08.2017 05:00:00 18,4 17,1 17,6 18,6 20,3 17,8 19,6 26 14 34 19 W 1013,0 8 0 0,0
18.08.2017 04:00:00 18,6 17,5 18,0 18,9 20,5 17,8 19,7 28 15 42 23 W 1013,0 7 0 0,0
18.08.2017 03:00:00 19,1 17,8 18,6 19,3 20,8 17,8 19,7 34 19 43 23 WZW 1013,1 11 0 0,0
18.08.2017 02:00:00 19,1 18,2 18,5 19,5 21,0 17,8 19,8 29 16 36 19 ZZW 1013,1 11 0 0,4
18.08.2017 01:00:00 18,9 18,0 18,3 19,6 21,3 17,8 19,9 15 8 29 16 Z 1013,3 5 0 4,0
18.08.2017 00:00:00 18,7 17,6 17,9 19,8 21,6 17,8 20,0 19 10 25 14 ZZW 1013,8 6 0 0,6
17.08.2017 23:00:00 18,6 17,2 17,8 20,4 22,0 17,8 20,2 24 13 31 17 ZZW 1014,2 10 0 4,3
17.08.2017 22:00:00 19,9 18,3 18,9 21,3 22,3 17,8 20,2 22 12 34 19 WZW 1014,4 4,1 0 0,7
17.08.2017 21:00:00 20,7 17,6 19,0 22,4 22,6 17,8 20,3 18 10 34 18 ZO 1014,1 24 0 0,3
17.08.2017 20:00:00 21,2 16,7 20,8 23,2 22,8 17,8 20,4 24 13 32 18 ZO 1014,3 30 0 0,0
17.08.2017 19:00:00 21,2 17,5 21,2 24,5 22,9 17,8 20,5 21 11 30 16 ZO 1014,9 26 0 0,0
17.08.2017 18:00:00 21,2 17,8 22,3 25,6 22,9 17,8 20,5 16 9 29 16 ZO 1015,3 19 4 0,0
17.08.2017 17:00:00 21,0 17,6 22,5 26,3 22,8 17,8 20,7 15 8 27 15 ZO 1016,1 17 0 0,0
17.08.2017 16:00:00 21,2 17,7 23,8 27,6 22,5 17,8 20,8 16 8 27 15 ZO 1016,8 13 0 0,0
17.08.2017 15:00:00 21,0 17,5 24,0 28,9 21,9 17,8 21,0 16 9 28 15 ZO 1017,5 7 50 0,0
17.08.2017 14:00:00 21,3 18,0 27,6 29,2 21,1 17,8 21,2 13 7 24 13 ZO 1018,3 6 60 0,0
17.08.2017 13:00:00 21,1 17,4 26,8 27,8 20,3 17,8 20,8 15 8 28 15 ZO 1018,8 6 60 0,0
17.08.2017 12:00:00 20,4 17,0 25,1 25,5 19,5 17,8 20,3 20 11 27 15 ZO 1019,2 5 60 0,0
17.08.2017 11:00:00 20,0 17,3 24,5 23,1 18,9 17,8 19,8 17 9 26 14 ZO 1019,9 4,6 60 0,0
17.08.2017 10:00:00 19,9 17,4 23,5 20,6 18,5 17,8 19,5 11 6 22 12 ZZO 1020,2 5 58 0,0
17.08.2017 09:00:00 18,9 15,7 20,6 18,4 18,4 17,8 19,3 15 8 22 12 ZO 1020,5 5 60 0,0
17.08.2017 08:00:00 18,6 16,0 18,8 16,7 18,5 17,8 19,2 10 5 16 9 ZO 1020,5 11 58 0,0
17.08.2017 07:00:00 17,5 16,4 15,7 15,5 18,7 17,8 19,2 7 4 11 6 ZZO 1020,8 8 7 0,0
17.08.2017 06:00:00 16,4 15,6 9,8 15,5 19,0 17,8 19,2 4 2 4 2 ZO 1020,7 15 0 0,0
17.08.2017 05:00:00 15,8 15,1 10,2 16,2 19,3 17,8 19,2 3 2 11 6 WZW 1020,5 19 0 0,0
17.08.2017 04:00:00 17,0 15,1 14,7 17,0 19,5 17,8 19,2 9 5 18 10 WZW 1020,9 21 0 0,0
17.08.2017 03:00:00 17,8 16,2 16,2 17,2 19,8 17,8 19,3 16 9 20 11 ZW 1021,2 13 0 0,0
17.08.2017 02:00:00 17,7 15,5 15,9 17,4 20,1 17,8 19,4 14 8 16 9 ZZW 1021,2 24 0 0,0
17.08.2017 01:00:00 17,7 16,0 15,4 17,7 20,5 17,8 19,5 9 5 13 7 ZZW 1021,3 21 0 0,0
17.08.2017 00:00:00 16,8 15,0 11,8 18,2 20,9 17,8 19,5 4 2 14 8 ZW 1021,3 25 0 0,0
16.08.2017 23:00:00 18,7 14,9 17,1 19,0 21,2 17,8 19,5 13 7 17 9 W 1021,7 40 0 0,0
16.08.2017 22:00:00 18,1 14,7 17,0 19,7 21,6 17,8 19,5 13 7 16 9 W 1021,6 27 0 0,0
16.08.2017 21:00:00 17,4 15,6 15,9 21,0 21,9 17,8 19,5 11 6 17 9 NNW 1021,4 28 6 0,0
16.08.2017 20:00:00 19,2 15,9 18,7 22,7 22,0 17,8 19,6 16 8 24 13 NNW 1020,9 32 59 0,0
16.08.2017 19:00:00 20,0 15,9 21,7 24,4 21,9 17,8 19,6 22 12 27 15 NNW 1020,7 32 55 0,0
16.08.2017 18:00:00 20,9 16,4 23,4 25,5 21,6 17,8 19,7 16 8 24 13 NNW 1020,7 24 54 0,0
16.08.2017 17:00:00 20,1 16,0 21,8 24,9 21,3 17,7 19,6 18 10 25 13 NNW 1020,7 27 26 0,0
16.08.2017 16:00:00 20,7 16,4 22,6 24,6 21,0 17,7 19,6 19 10 25 13 NNW 1020,4 20 20 0,0
16.08.2017 15:00:00 20,1 16,3 21,1 22,6 20,8 17,7 19,4 23 12 29 15 WNW 1020,2 12 0 0,0
16.08.2017 14:00:00 19,2 16,2 20,1 22,2 20,7 17,7 19,4 24 13 28 15 NNW 1019,9 18 0 0,0
16.08.2017 13:00:00 19,5 16,7 20,4 22,2 20,5 17,7 19,3 18 10 24 13 WNW 1019,7 9 0 0,0
16.08.2017 12:00:00 20,0 17,3 20,9 21,5 20,4 17,7 19,4 18 10 31 17 NNW 1019,2 16 0 0,0
16.08.2017 11:00:00 19,2 16,8 19,7 20,6 20,4 17,7 19,3 27 14 34 19 NNW 1018,5 14 0 0,0
16.08.2017 10:00:00 18,9 17,7 19,2 20,0 20,4 17,7 19,3 28 15 35 19 WNW 1018,1 3,7 0 0,0
16.08.2017 09:00:00 19,0 17,3 19,6 20,1 20,4 17,7 19,3 25 13 41 22 W 1017,3 7 45 0,0
16.08.2017 08:00:00 19,1 17,6 19,6 19,2 20,5 17,7 19,3 28 15 33 18 WNW 1016,5 11 19 0,0
16.08.2017 07:00:00 18,6 17,7 18,2 19,1 20,7 17,6 19,2 19 11 27 15 WNW 1015,9 8 2 0,0
16.08.2017 06:00:00 19,3 17,8 18,2 19,4 21,0 17,6 19,2 17 9 22 12 W 1015,1 15 0 0,1
16.08.2017 05:00:00 19,4 17,1 18,4 19,7 21,2 17,6 19,3 20 11 27 15 W 1015,0 17 0 0,0
16.08.2017 04:00:00 19,4 16,6 17,9 20,1 21,4 17,6 19,3 9 5 24 13 Z 1014,5 21 0 0,2
16.08.2017 03:00:00 20,0 16,2 19,5 20,4 21,6 17,6 19,4 10 5 31 17 Z 1014,6 26 0 0,0
16.08.2017 02:00:00 20,3 16,3 19,7 20,6 21,9 17,6 19,5 26 14 33 18 ZZW 1015,2 23 0 0,0
16.08.2017 01:00:00 20,6 16,1 20,0 20,8 22,2 17,6 19,6 23 13 33 18 ZO 1015,0 30 0 0,0
16.08.2017 00:00:00 20,3 16,1 19,4 21,1 22,6 17,6 19,7 19 10 31 17 ZO 1015,4 33 0 0,0
15.08.2017 23:00:00 20,3 16,1 19,4 21,5 23,0 17,6 19,8 18 10 30 16 OZO 1015,6 32 0 0,0
15.08.2017 22:00:00 20,6 16,1 19,5 22,3 23,4 17,6 19,9 20 11 33 18 OZO 1016,1 33 0 0,0
15.08.2017 21:00:00 20,7 16,4 19,7 23,5 23,8 17,6 20,0 20 11 30 16 OZO 1015,9 42 0 0,0
15.08.2017 20:00:00 21,1 16,4 20,7 25,0 24,2 17,6 20,0 16 9 31 17 OZO 1016,7 39 25 0,0
15.08.2017 19:00:00 21,1 16,5 21,7 26,9 24,3 17,6 20,0 19 11 30 16 OZO 1017,1 29 26 0,0
15.08.2017 18:00:00 21,6 16,1 25,0 29,7 24,1 17,6 20,0 23 12 31 17 OZO 1017,4 16 60 0,0
15.08.2017 17:00:00 21,8 16,0 27,0 30,8 23,6 17,6 20,2 22 12 32 17 OZO 1018,1 11 60 0,0
15.08.2017 16:00:00 22,2 15,2 27,7 31,4 23,0 17,6 20,4 22 12 32 17 OZO 1018,5 11 60 0,0
15.08.2017 15:00:00 22,2 15,2 28,5 31,1 22,2 17,6 20,3 19 10 32 17 OZO 1019,3 9 60 0,0
15.08.2017 14:00:00 22,2 15,2 28,5 29,8 21,3 17,6 20,2 17 9 32 17 ZO 1020,1 9 60 0,0
15.08.2017 13:00:00 21,7 14,4 26,8 27,7 20,5 17,6 19,7 18 10 38 20 ZO 1020,3 12 60 0,0
15.08.2017 12:00:00 20,7 14,7 24,9 25,4 19,9 17,6 19,3 29 16 41 22 ZO 1020,5 6 60 0,0
15.08.2017 11:00:00 19,8 13,6 23,0 23,2 19,3 17,6 19,0 29 15 46 25 ZO 1021,0 7 60 0,0
15.08.2017 10:00:00 19,2 14,0 21,9 20,9 19,0 17,5 18,8 24 13 41 22 ZO 1021,1 5 60 0,0
15.08.2017 09:00:00 18,8 13,8 20,3 18,9 18,9 17,5 18,6 19 10 34 18 ZO 1021,6 9 60 0,0
15.08.2017 08:00:00 18,4 12,8 18,7 17,5 19,0 17,5 18,4 18 10 31 17 ZZO 1021,8 16 60 0,0
15.08.2017 07:00:00 18,2 13,2 17,2 16,9 19,2 17,5 18,4 18 10 31 17 ZZO 1021,9 32 28 0,0
15.08.2017 06:00:00 18,0 13,2 16,4 16,9 19,4 17,5 18,4 14 8 31 17 ZZO 1021,9 31 0 0,0
15.08.2017 05:00:00 17,9 13,4 16,3 17,2 19,7 17,5 18,5 14 8 32 17 ZZO 1022,1 33 0 0,0
15.08.2017 04:00:00 18,1 14,0 16,8 17,5 20,0 17,5 18,6 22 12 34 18 ZO 1022,3 39 0 0,0
15.08.2017 03:00:00 17,9 14,0 16,6 17,7 20,3 17,5 18,7 17 9 33 18 ZO 1022,5 41 0 0,0
15.08.2017 02:00:00 17,7 13,7 16,4 18,1 20,7 17,5 18,8 24 13 40 22 OZO 1023,0 40 0 0,0
15.08.2017 01:00:00 18,0 12,9 16,7 18,4 21,1 17,5 18,8 26 14 40 22 OZO 1023,3 46 0 0,0
15.08.2017 00:00:00 17,8 13,5 16,6 19,0 21,5 17,5 18,9 26 14 39 21 OZO 1023,6 49 0 0,0
14.08.2017 23:00:00 17,9 13,4 16,6 19,6 22,0 17,5 19,0 23 12 36 19 OZO 1023,7 45 0 0,0
14.08.2017 22:00:00 17,7 13,0 16,6 20,5 22,6 17,5 19,0 25 13 37 20 O 1023,9 46 0 0,0
14.08.2017 21:00:00 17,6 13,0 16,6 21,8 23,1 17,5 19,0 25 14 35 19 O 1023,8 50 24 0,0
14.08.2017 20:00:00 17,6 12,3 17,5 24,0 23,5 17,5 19,1 23 13 31 17 O 1023,8 64 60 0,0
14.08.2017 19:00:00 18,0 12,6 20,3 26,4 23,7 17,5 19,4 20 11 30 16 O 1023,9 19 60 0,0
14.08.2017 18:00:00 18,5 11,7 22,6 28,7 23,5 17,6 19,4 18 10 24 13 O 1024,0 22 60 0,0
14.08.2017 17:00:00 18,9 11,6 24,6 30,1 23,1 17,6 20,1 14 8 22 12 O 1024,2 20 60 0,0
14.08.2017 16:00:00 18,5 10,8 24,4 31,0 22,5 17,6 19,6 15 8 22 12 O 1024,6 21 60 0,0
14.08.2017 15:00:00 18,9 11,8 26,5 30,9 21,7 17,6 19,7 14 7 19 10 O 1024,8 16 60 0,0
14.08.2017 14:00:00 18,6 10,8 27,3 30,3 20,7 17,6 20,1 10 5 16 9 O 1024,9 24 60 0,0
14.08.2017 13:00:00 19,0 11,5 28,5 28,8 19,7 17,6 20,2 7 4 12 6 OZO 1025,0 27 60 0,0
14.08.2017 12:00:00 18,9 11,3 26,8 26,5 18,8 17,6 19,2 4 2 9 5 OZO 1025,2 35 60 0,0
14.08.2017 11:00:00 19,0 11,1 24,7 23,4 18,0 17,6 18,9 3 2 8 4 N 1025,2 46 59 0,0
14.08.2017 10:00:00 18,6 11,1 23,2 20,2 17,6 17,6 18,8 4 2 10 5 N 1024,7 41 60 0,0
14.08.2017 09:00:00 18,2 10,5 21,1 17,4 17,4 17,6 18,8 3 2 14 8 NNO 1024,4 49 60 0,0
14.08.2017 08:00:00 17,7 12,0 17,9 15,5 17,5 17,6 18,7 9 5 17 9 N 1023,8 23 60 0,0
14.08.2017 07:00:00 16,4 12,7 15,0 14,7 17,7 17,6 18,7 12 7 18 10 NNW 1023,5 32 46 0,0
14.08.2017 06:00:00 14,4 12,2 11,3 15,0 18,0 17,6 18,7 14 7 22 12 NNW 1023,2 41 0 0,0
14.08.2017 05:00:00 15,1 12,4 14,2 15,5 18,2 17,6 18,6 19 10 24 13 NW 1022,8 40 0 0,0
14.08.2017 04:00:00 15,7 12,8 14,9 15,9 18,4 17,6 18,6 20 11 26 14 WNW 1022,6 50 0 0,0
14.08.2017 03:00:00 16,3 12,8 15,5 16,2 18,7 17,6 18,6 22 12 31 17 WNW 1022,3 52 0 0,0
14.08.2017 02:00:00 16,7 12,1 15,9 16,5 19,0 17,6 18,6 28 15 32 18 WNW 1022,0 54 0 0,0
14.08.2017 01:00:00 17,0 12,4 16,2 16,9 19,3 17,7 18,7 27 15 34 18 W 1021,7 54 0 0,0
14.08.2017 00:00:00 17,2 11,7 16,4 17,2 19,6 17,7 18,8 29 16 35 19 W 1021,5 52 0 0,0

tt = temperatuur
td = dauwpunt
tt 5cm = temperatuur 5cm
tt -5cm = temperatuur -5cm
tt -20cm = temperatuur -20cm
tt -100cm = temperatuur -100cm
tw = water temperatuur
ff = windsnelheid
fx = windstoten
dd = windrichting
ppp = luchtdruk
vv = zicht
sd = Zonneschijnduur
rr = neerslag

Weerstations in de omgeving